Regional Weather Roundup
Issued by NWS Goodland, KS

Home | Current Version | Previous Version | Graphics & Text | Print | Product List | Glossary On
Versions: 1 2 3 4 5 6 7 8 9 10 11 12 13 14 15 16 17 18 19 20 21 22 23 24 25 26 27 28 29 30 31 32 33 34 35 36 37 38 39 40 41 42 43 44 45 46 47 48 49 50
828
ASUS43 KGLD 282008
RWRGLD

GOODLAND FORECAST AREA HOURLY WEATHER ROUNDUP
NATIONAL WEATHER SERVICE GOODLAND KS
200 PM MDT WED JUN 28 2017

...OFFICIAL OBSERVATIONS...

CITY           SKY/WX    TMP DP  RH WIND       PRES   REMARKS
GOODLAND KS    SUNNY     88  46  23 VRB3      29.82F
HILL CITY KS   SUNNY     91  57  31 CALM      29.74F
IMPERIAL NEB   SUNNY     90  41  18 MISG      29.79F
MCCOOK NEB     SUNNY     89  48  24 CALM      29.75F
AKRON CO       SUNNY     84  37  18 VRB3      29.87F
BURLINGTON CO  SUNNY     88  44  21 NE7       29.86F
LIMON CO       SUNNY     87  37  17 S16G25    29.91F
$$

...UNOFFICIAL OBSERVATIONS...

CITY           SKY/WX    TMP DP  RH WIND       PRES   REMARKS
LENORA KS        N/A     90  32  12 MISG        N/A
NORTON KS      SUNNY     93  37  14 N6        29.74F
SHARON SPRINGS   N/A     88  55  32 N7G14       N/A
TRENTON NEB      N/A     89  32  13 CALM        N/A
KIT CARSON CO    N/A     89  45  21 MISG        N/A
YUMA CO        FAIR      81  43  26 CALM      29.83F
$$




USA.gov is the U.S. government's official web portal to all federal, state and local government web resources and services.